Flight Information

DEPARTURE
OLYMPIA, WA
Elevation:
207
Runways:
17/35 - 5500x150 - ASPH-G
8/26 - 4157x150 - ASPH-G
ATIS:
135.725
Ground:
121.6
Tower:
OLYMPIA TOWER 124.4
DESTINATION
,
Elevation:
TPA:
1000 (est.)


6705.2 NM65° True-20° Var44° HDG

Flight Plan:
(click to file on line)

1. Type
2. Aircraft Identification
3. Aircraft Type / Special Equipment
4. True Airspeed
kts
5. Departure Airport
(ICAO code)
6. Arriving Airport
(ICAO code)
7. Cruising Altitude
ft
8. Alternate Airport
(ICAO code)
9. Route of Flight
10. Remarks


00:00:00 Departure ATIS: Destination ATIS:

Clearance Limit:
Route:
Altitude: Expect in minutes
Frequency:
Transponder: (7500 Hijack / 7600 Lost Comms / 7700 Emergency)


KOLM 100554Z AUTO 35003KT 6SM -RA BR OVC035 04/04 A2937 RMK AO2 SLP945 P0001 60027 T00390039 10050 20039 56029
Time: 2022-12-10T05:54:00Z
1670652460
Winds: 350 @ 3 kts
Visibility: 6.0 sm
Clouds (AGL): OVC 3500
Temperature: 3.9 C
Dew Point: 3.9 C
Pressure: 29.371063 in Hgbr


Notes:

Data extracted from FAA Digital Chart Supplement. Effective: 0901Z Thursday, 27 JAN 2022 to 0900z Thursday, 24 MAR 2022
Current ATIS data is provided courtisy of PilotEdge.